Location: Unspecified
(0.0000°N, 0.0000°E)
Time: 03:58:18
(UTC+00:00)

N. Korean satellite - Pass Details

Date: 16 March 2018
Orbit: 458 x 511 km, 97.2° (Epoch: 20 September)

Event Time Altitude Azimuth Distance (km) Brightness Sun altitude
Rises 19:06:57 0° 204° (SSW) 2,500 10.5 -14.6°
Reaches altitude 10° 19:10:14 10° 239° (WSW) 1,633 10.2 -15.4°
Maximum altitude 19:11:26 11° 259° (W) 1,546 10.4 -15.7°
Drops below altitude 10° 19:12:40 10° 280° (W) 1,640 10.5 -16.0°
Sets 19:15:59 0° 314° (NW) 2,529 10.9 -16.8°
